Location: Absher
(46.5583°N, 107.9840°W)
Time: 13:26:38
(UTC+00:00)

ITAMSAT 1 - Visible Passes

Search period start: 27 March 2023 00:00
Search period end: 06 April 2023 00:00
Orbit: 784 x 795 km, 98.8° (Epoch: 27 March)

Date Brightness Start Highest point End Pass type
(mag) Time Alt. Az. Time Alt. Az. Time Alt. Az.
27 Mar 7.6 02:38:18 10° SSE 02:43:30 84° ENE 02:48:46 10° NNW visible
27 Mar 10.4 04:21:00 10° WSW 04:23:38 14° W 04:26:16 10° WNW visible
28 Mar 8.0 02:08:58 10° SE 02:13:57 48° ENE 02:18:58 10° N visible
28 Mar 9.7 03:49:22 10° SSW 03:53:37 25° W 03:57:54 10° NW visible
29 Mar 8.7 03:18:47 10° S 03:23:44 44° W 03:28:45 10° NNW visible
30 Mar 7.8 02:48:48 10° SSE 02:54:00 80° WSW 02:59:16 10° NNW visible
30 Mar 10.5 04:32:51 10° WSW 04:34:16 11° W 04:35:42 10° WNW visible
31 Mar 7.8 02:19:18 10° SSE 02:24:24 58° ENE 02:29:32 10° N visible
31 Mar 10.0 04:00:22 10° SW 04:04:13 21° W 04:08:06 10° NW visible
01 Apr 9.1 03:29:30 10° SSW 03:34:18 37° W 03:39:08 10° NNW visible
02 Apr 8.0 02:59:20 10° S 03:04:30 66° WSW 03:09:44 10° NNW visible
03 Apr 7.7 02:29:40 10° SSE 02:34:51 71° ENE 02:40:05 10° N visible
03 Apr 10.2 04:11:29 10° SW 04:14:49 17° W 04:18:10 10° NW visible
04 Apr 9.4 03:40:18 10° SSW 03:44:51 30° W 03:49:27 10° NW visible
05 Apr 8.4 03:09:55 10° S 03:15:01 54° W 03:20:10 10° NNW visible
